JCSAT-15

Last updated on Nov. 18, 2019, 4:21 a.m. UTC

1 41903U 16082A   19321.52087010 -.00000344  00000-0  00000+0 0  9994
2 41903   0.0134 279.1526 0001564 331.4624 103.2803  1.00270644 10684
UTC
Height (km)
Latitude
Longitude
Inclination
Orbital Period
UTC large
Height (km)
Speed (km/s)
/
Latitude / Longitude
Inclination (degrees)
Orbital Period (minutes)
Azimuth
Elevation
Range (km)
Doppler Factor
iOS Compass Heading
iOS Angle

Next 30 passes for location: Hong Kong

Rise time Rise Azimuth (degrees) Set time Set Azimuth (degrees) Duration Max altitude (degrees)

No matching passes for this satellites